This is the latest recevied weather packets stored in our database for station/object W4SNA-3. If no packets are shown the sender has not sent any weather packets the latest 10 day(s).
| Time | Temp. | Humidity | Pressure | Rain* | Wind** | Luminosity | Snow |
|---|---|---|---|---|---|---|---|
| 1788029248 | 24.44° C | 80% | 1024 hPa | 0 mm | - | - | - |
| 1788028948 | 24.44° C | 81% | 1024 hPa | 0 mm | - | - | - |
| 1788028648 | 24.44° C | 80% | 1023.9 hPa | 0 mm | - | - | - |
| 1788028111 | 25° C | 79% | 1024 hPa | 0 mm | - | - | - |
| 1788027809 | 25° C | 79% | 1024 hPa | 0 mm | - | - | - |
| 1788027503 | 25.56° C | 78% | 1024 hPa | 0 mm | - | - | - |
| 1788027203 | 25.56° C | 78% | 1024.1 hPa | 0 mm | - | - | - |
| 1788026903 | 25.56° C | 83% | 1024 hPa | 0 mm | - | - | - |
| 1788026604 | 25.56° C | 80% | 1024.3 hPa | 0 mm | - | - | - |
| 1788026303 | 25° C | 82% | 1024.3 hPa | 0 mm | - | - | - |
| 1788026008 | 25° C | 84% | 1024.4 hPa | 0 mm | - | - | - |
| 1788025703 | 24.44° C | 85% | 1024.4 hPa | 0 mm | - | - | - |
| 1788025403 | 23.89° C | 85% | 1024.4 hPa | 0 mm | - | - | - |
| 1788024566 | 23.89° C | 82% | 1024.5 hPa | 0 mm | - | - | - |
| 1788024267 | 24.44° C | 82% | 1024.5 hPa | 0 mm | - | - | - |
| 1788023968 | 24.44° C | 83% | 1024.5 hPa | 0 mm | - | - | - |
| 1788023666 | 23.89° C | 82% | 1024.6 hPa | 0 mm | - | - | - |
| 1788023366 | 23.89° C | 83% | 1024.6 hPa | 0 mm | - | - | - |
| 1788023075 | 23.89° C | 84% | 1024.6 hPa | 0 mm | - | - | - |
| 1788022768 | 23.89° C | 87% | 1024.6 hPa | 0 mm | - | - | - |
| 1788022477 | 23.33° C | 89% | 1024.6 hPa | 0 mm | - | - | - |
| 1788022169 | 22.78° C | 87% | 1024.6 hPa | 0 mm | - | - | - |
| 1788021866 | 22.78° C | 89% | 1024.7 hPa | 0 mm | - | - | - |
| 1788021566 | 22.22° C | 86% | 1024.7 hPa | 0 mm | - | - | - |
| 1788021266 | 22.22° C | 86% | 1024.6 hPa | 0 mm | - | - | - |
* Rain latest hour (hover to see other rain measurements)
** Current wind speed in m/s (hover to see current wind gust speed)